OBJECT AC, 68442

Orbit data source: Space-Track

You're viewing an Uncataloged Satellite

Recently launched and/or uncataloged satellites may have evolving metadata. Metadata may include but not limited to: Owner, Maufacturer, Bus, Motor, and Mission.

OBJECT AC, 68442 is a satellite in SSO that was launched on Mon, 30 Mar 2026 UTC via an FALCON 9 launch vehicle from the Air Force Western Test Range (AFWTR). Unknown objects in Earth's orbit typically refer to objects detected orbiting the Earth but have not yet been identified or cataloged. These objects could be anything from previously untracked satellites, spent rocket stages, debris from satellite collisions, or even natural meteoroids temporarily captured by Earth's gravity.

Loading next visibility...
Identifier
68442, 2026-067AC
Orbit
SSO
Country
Flag of TBDTBD
Related business
None
Manufacturer
Unknown
Mission
Operational spacecraft
Bus & Motor
Unknown
Mass
Unknown
Launch date (UTC)
2026-03-30 (1 month ago)
Launch vehicle
FALCON 9
Launch site
Air Force Western Test Range (AFWTR)
Object type
Unknown
Shape & HBR
Unknown shape, 1.1 m
Radar Cross Section
RCS unknown

Expand to show TLE details & history
Last TLE update: 11 hours ago

TLE from 11 hours ago
0 OBJECT AC
1 68442U 26067AC  26127.16179442  .00005082  00000-0  25800-3 0  9990
2 68442  97.4521  86.1881 0003863 185.2737 174.8457 15.17338966  5717
Epoch: 2026-05-07T03:52Z
TLE epoch observation values (Epoch: 2026-05-07T03:52:59.037Z)
Latitude
-0°
Longitude
162.93021°
Altitude
519.624 km
Speed
7.602 km/s
True Right ascension
05h 44m 45s
True Declination
0° 00' 00"
Sunlit
Object was in daylight at epoch
Visualization orbit readout
Latitude
Unknown
Longitude
Unknown
Altitude
Unknown
Speed
Unknown
Apparent Right ascension
Unknown
Apparent Declination
Unknown
Sunlit
N/A
Visualization observer readout
Local Sidereal Time
23:12:19
Azimuth
Unknown
Elevation
Unknown
Doppler factor
Unknown
Orbital elements
Apogee altitude
513.519 km
Perigee altitude
508.197 km
Semi-major axis
6,888.995 km
Eccentricity
0.00039
Inclination
97.4521°
RAAN
86.1881°
Arg. of periapsis
185.2737°
True anomaly
174.84967°
Mean anomaly
174.8457°
Eccentric anomaly
174.84769°
Mean motion
3.79585 °/min
Orbital period
94.84 mins
BSTAR
0.000258
Loading maneuver chart data...
Computing Atmospheric mass density...
Loading historical data...
Loading historical data...
Loading historical data...
Loading historical data...
Loading historical data...
Loading historical data...
Loading historical data...

Documentation

Showing up to 5 results
|